Regional Weather Roundup
Issued by NWS Newport/Morehead, NC

Current Version | Previous Version | Text Only | Print | Product List | Glossary On
Versions: 1 2 3 4 5 6 7 8 9 10 11 12 13 14 15 16 17 18 19 20 21 22 23 24 25 26 27 28 29 30 31 32 33 34 35 36 37 38 39 40 41 42 43 44 45 46 47 48 49 50
000
ASUS42 KMHX 030124
RWRMHX
WEATHER ROUNDUP FOR EASTERN NORTH CAROLINA
NATIONAL WEATHER SERVICE NEWPORT/MOREHEAD CITY NC
900 PM EDT SAT MAY 02 2015

NOTE: "FAIR" INDICATES FEW OR NO CLOUDS BELOW 12,000 FEET
WITH NO SIGNIFICANT WEATHER AND/OR OBSTRUCTIONS TO VISIBILITY

NCZ015>017-031-032-045>047-102-103-030200-
NORTH COAST

CITY           SKY/WX    TMP DP  RH WIND       PRES   REMARKS
EDENTON        CLEAR     54  50  87 E5        30.07R
ELIZABETH CITY CLEAR     55  47  74 CALM      30.07R
KITTY HAWK     CLEAR     51  45  80 CALM      30.05R
MANTEO         CLEAR     50  46  83 NE5       30.07R

$$

NCZ045>047-081-094-103-104-030200-
CENTRAL COAST

CITY           SKY/WX    TMP DP  RH WIND       PRES   REMARKS
FRISCO         CLEAR     50  45  83 NE3       30.06R
SWANQUARTER      N/A     55 N/A N/A E3        30.03S

$$

NCZ095-097-098-100-101-030200-
SOUTHERN COAST

CITY           SKY/WX    TMP DP  RH WIND       PRES   REMARKS
BEAUFORT       CLEAR     58  51  78 E5        30.08R
CEDAR ISLAND     N/A     61 N/A N/A NE6G12    30.12R
JACKSONVILLE   PTCLDY    59  51  75 CALM      30.06R
PINEY ISLAND   CLEAR    N/A N/A N/A E8        30.07R
WILMINGTON     MOCLDY    63  55  75 CALM      30.06R


$$

NCZ011>013-027>030-043-044-078>080-089-090>093-098-030200-
COASTAL PLAIN

CITY           SKY/WX    TMP DP  RH WIND       PRES   REMARKS
AHOSKIE        FAIR      56  52  86 CALM      30.06R
CLINTON        PTCLDY    60  55  86 CALM      30.07R
ELIZABETHTOWN  PTCLDY    61  51  68 CALM      30.07R
GOLDSBORO      PTCLDY    60  55  85 CALM      30.05R
GREENVILLE     PTCLDY    59  52  77 CALM      30.08R
HAVELOCK       PTCLDY    58  51  78 SE6       30.09R
KENANSVILLE    PTCLDY    56  52  88 CALM      30.08R
KINSTON        PTCLDY    55  52  88 CALM      30.07R
NEW BERN       CLOUDY    62  53  72 SE6       30.08R
RICHLANDS      CLEAR     55  48  76 CALM      30.08R
ROCKY MOUNT    PTCLDY    57  55  93 CALM      30.06R
WASHINGTON       N/A     57  52  84 CALM      30.08R
WHITEVILLE     PTCLDY    62  52  69 CALM      30.06R

$$

AMZ130-135-150-152-154-156-158-170-250-252-270-ANZ085-086-088-633-658-670-030200-
MARINE OBSERVATIONS

STATION/POSITION TIME  TEMP    WIND        PRES    WAVE   SWELL
                       AIR SEA DIR/SP/G            HT/PER HT/PER
                 (UTC) (F)     (DEG/KT/KT) (MB)    (FT/S) (FT/S)
CHESAPEAKE LIGHT 0100   51     170/  7/  7 1018.2
64 E VA BEACH    0050   56 64  340/ 10/ 10 1017.0    9/11   8/11
DUCK             0100   53 54   80/  7/  8 1016.8
2 E DUCK         0011      54                N/A     6/11   3/11
OREGON INLET     0100   52 57   40/  7/  9 1017.8
13E OREGON INLT  0100      50                N/A     8/11   5/11
HATTERAS CG      0000   57 61   30/  8/ 11 1017.0
DIAMOND BUOY     0050   56 68   20/ 16/ 17 1017.6    7/11   7/11
CAPE LOOKOUT     0100   61      60/ 10/ 11 1018.3
BEAUFORT LAB     0000   60 62  110/  6/  8 1016.8
27 SE WRIGHTSVLE 0100   64 72  320/  2/  4   N/A
5 SE WRIGHTSVLE  0008   66 67  230/  6/ 10 1017.4
225 S CAPE HAT   0050   65 69  350/ 21/ 27 1016.9   12/11   8/11
41 SE CHARLESTON 0050   69 72  210/  8/ 10 1017.7    3/10   3/10

$$



USA.gov is the U.S. government's official web portal to all federal, state and local government web resources and services.